This is the latest recevied weather packets stored in our database for station/object KB1QVF. If no packets are shown the sender has not sent any weather packets the latest 10 day(s).
| Time | Temp. | Humidity | Pressure | Rain* | Wind** | Luminosity | Snow |
|---|---|---|---|---|---|---|---|
| 1777987583 | 17.22° C | 64% | 1013.2 hPa | 0 mm | - | 240 W/m² | - |
| 1777987281 | 17.22° C | 64% | 1013.2 hPa | 0 mm | - | 466 W/m² | - |
| 1777986978 | 17.22° C | 65% | 1013.1 hPa | 0 mm | - | 226 W/m² | - |
| 1777986676 | 16.67° C | 66% | 1013.4 hPa | 0 mm | - | 190 W/m² | - |
| 1777986373 | 16.67° C | 65% | 1013.4 hPa | 0 mm | - | 381 W/m² | - |
| 1777986072 | 16.67° C | 67% | 1013.3 hPa | 0 mm | - | 281 W/m² | - |
| 1777985768 | 16.67° C | 68% | 1013.3 hPa | 0 mm | - | 298 W/m² | - |
| 1777985465 | 16.11° C | 69% | 1013.1 hPa | 0 mm | - | 162 W/m² | - |
| 1777985161 | 16.11° C | 68% | 1013.2 hPa | 0 mm | - | 196 W/m² | - |
| 1777984857 | 16.11° C | 69% | 1013.2 hPa | 0 mm | - | 407 W/m² | - |
| 1777984554 | 16.11° C | 69% | 1013.2 hPa | 0 mm | - | 406 W/m² | - |
| 1777984250 | 15.56° C | 70% | 1013.3 hPa | 0 mm | - | 185 W/m² | - |
| 1777983947 | 15.56° C | 70% | 1013.6 hPa | 0 mm | - | 150 W/m² | - |
| 1777983644 | 15.56° C | 70% | 1013.4 hPa | 0 mm | - | 298 W/m² | - |
| 1777983341 | 15.56° C | 72% | 1013.6 hPa | 0 mm | - | 273 W/m² | - |
| 1777983038 | 15° C | 73% | 1013.3 hPa | 0 mm | - | 238 W/m² | - |
| 1777982734 | 14.44° C | 75% | 1012.9 hPa | 0 mm | - | 200 W/m² | - |
| 1777982429 | 14.44° C | 76% | 1013 hPa | 0 mm | - | 79 W/m² | - |
| 1777982124 | 13.89° C | 77% | 1013 hPa | 0 mm | - | 71 W/m² | - |
| 1777981822 | 13.89° C | 78% | 1013.1 hPa | 0 mm | - | 68 W/m² | - |
| 1777981519 | 13.33° C | 79% | 1013.1 hPa | 0 mm | - | 67 W/m² | - |
| 1777981215 | 13.33° C | 79% | 1013.1 hPa | 0 mm | - | 66 W/m² | - |
| 1777980912 | 12.78° C | 81% | 1013.1 hPa | 0 mm | - | 77 W/m² | - |
| 1777980608 | 12.78° C | 82% | 1013.1 hPa | 0 mm | - | 70 W/m² | - |
| 1777980305 | 12.22° C | 82% | 1012.9 hPa | 0 mm | - | 87 W/m² | - |
* Rain latest hour (hover to see other rain measurements)
** Current wind speed in m/s (hover to see current wind gust speed)